Location: St. Louis
(38.6270°N, 90.1994°W)
Time: 09:31:02
(UTC-06:00)

Vanguard 2 Rocket - Pass Details

Date: 04 December 2021
Orbit: 553 x 3325 km, 32.9° (Epoch: 23 January)

Event Time Altitude Azimuth Distance (km) Brightness Sun altitude
Rises 15:46:50 0° 199° (SSW) 2,828 10.5 7.8°
Reaches altitude 10° 15:50:01 10° 169° (S) 2,136 9.2 7.3°
Maximum altitude 15:52:21 13° 140° (SE) 2,113 8.8 6.9°
Drops below altitude 10° 15:55:05 10° 112° (ESE) 2,614 9.0 6.5°
Sets 15:59:55 0° 89° (E) 4,120 9.7 5.7°
